Salina, KS

3:46 PM CST on February 08, 2016 (GMT -0600)
Salina Municipal

Weather History for KSLN - June, 2013

Change the Weather History Date:

Sunday, June 30, 2013

  Actual Average Record
Temperature  
Mean Temperature 72 °F 80 °F  
Max Temperature 84 °F 92 °F 112 °F (1980)
Min Temperature 59 °F 68 °F 54 °F (1918)
Degree Days  
Heating Degree Days 0 0  
Month to date heating degree days 7 5  
Since 1 June heating degree days 7 7  
Since 1 July heating degree days 4924 4871  
Cooling Degree Days 7 15  
Month to date cooling degree days 387 325  
Year to date cooling degree days 528 453  
Since 1 June cooling degree days 387 325  
Growing Degree Days 22 (Base 50)    
Moisture  
Dew Point 53 °F    
Average Humidity 54    
Maximum Humidity 78    
Minimum Humidity 30    
Precipitation  
Precipitation 0.00 in 0.12 in 4.27 in (1905)
Month to date precipitation 2.24 4.11  
Year to date precipitation 15.48 16.10  
Sea Level Pressure  
Sea Level Pressure 30.01 in    
Wind  
Wind Speed 10 mph (North)    
Max Wind Speed 23 mph    
Max Gust Speed 30 mph    
Visibility 10 miles    
Events      
T = Trace of Precipitation, MM = Missing Value Source: NWS Daily Summary

Daily Weather History Graph

Daily Weather History Graph

Search for Another Location

Airport or City:

Trip Planner

Search our weather history database for the weather conditions in past years. The results will help you decide how hot, cold, wet, or windy it might be!

Date:

Astronomy

Jun. 30, 2013 Rise Set
Actual Time 6:08 AM CDT 8:59 PM CDT
Civil Twilight 5:37 AM CDT 9:31 PM CDT
Nautical Twilight 4:57 AM CDT 10:11 PM CDT
Astronomical Twilight 4:11 AM CDT 10:57 PM CDT
Moon 1:05 AM CDT (6/30) 2:18 PM CDT (6/30)
Length of Visible Light 15h 54m
Length of Day
14h 50m
Last Quarter, 45% of the Moon is Illuminated
Jun 30
Last Quarter
Jul 8
New
Jul 15
First Quarter
Jul 22
Full
Jul 29
Last Quarter

Hourly Weather History & Observations

Time (CDT) Temp. Heat Index Dew Point Humidity Pressure Visibility Wind Dir Wind Speed Gust Speed Precip Events Conditions
12:53 AM 66.9 °F - 53.1 °F 61% 29.96 in 10.0 mi North 6.9 mph - N/A   Clear
1:53 AM 64.9 °F - 53.1 °F 65% 29.96 in 10.0 mi NW 3.5 mph - N/A   Clear
2:53 AM 64.0 °F - 54.0 °F 70% 29.96 in 10.0 mi North 4.6 mph - N/A   Clear
3:53 AM 63.0 °F - 54.0 °F 72% 29.96 in 10.0 mi NW 5.8 mph - N/A   Clear
4:53 AM 62.1 °F - 54.0 °F 75% 29.98 in 10.0 mi NW 6.9 mph - N/A   Clear
5:53 AM 61.0 °F - 54.0 °F 78% 29.99 in 10.0 mi NW 3.5 mph - N/A   Clear
6:53 AM 62.1 °F - 55.0 °F 78% 30.01 in 10.0 mi WNW 8.1 mph - N/A   Clear
7:53 AM 66.0 °F - 57.0 °F 73% 30.03 in 10.0 mi NNW 9.2 mph - N/A   Clear
8:53 AM 71.1 °F - 57.0 °F 61% 30.04 in 10.0 mi North 6.9 mph - N/A   Clear
9:53 AM 73.9 °F - 57.0 °F 55% 30.04 in 10.0 mi Variable 4.6 mph - N/A   Clear
10:53 AM 77.0 °F - 55.0 °F 47% 30.04 in 10.0 mi NNE 8.1 mph - N/A   Clear
11:53 AM 80.1 °F 80.0 °F 54.0 °F 40% 30.03 in 10.0 mi North 13.8 mph 20.7 mph N/A   Scattered Clouds
12:53 PM 81.0 °F - 52.0 °F 36% 30.02 in 10.0 mi NNE 18.4 mph 23.0 mph N/A   Partly Cloudy
1:53 PM 80.1 °F - 51.1 °F 36% 30.02 in 10.0 mi NNE 20.7 mph 26.5 mph N/A   Partly Cloudy
2:53 PM 81.0 °F - 52.0 °F 36% 30.01 in 10.0 mi North 15.0 mph 26.5 mph N/A   Scattered Clouds
3:53 PM 82.9 °F - 51.1 °F 33% 30.01 in 10.0 mi NNE 17.3 mph 29.9 mph N/A   Clear
4:53 PM 82.0 °F - 51.1 °F 34% 30.01 in 10.0 mi North 15.0 mph - N/A   Clear
5:53 PM 81.0 °F - 48.9 °F 33% 30.01 in 10.0 mi NNE 18.4 mph 24.2 mph N/A   Clear
6:53 PM 80.1 °F - 46.9 °F 31% 30.01 in 7.0 mi NNE 13.8 mph - N/A   Clear
7:53 PM 77.0 °F - 51.1 °F 40% 30.02 in 9.0 mi NE 10.4 mph - N/A   Clear
8:53 PM 73.9 °F - 50.0 °F 43% 30.04 in 10.0 mi NE 9.2 mph - N/A   Clear
9:53 PM 72.0 °F - 50.0 °F 46% 30.05 in 10.0 mi NE 6.9 mph - N/A   Clear
10:53 PM 70.0 °F - 50.0 °F 49% 30.07 in 10.0 mi NNE 5.8 mph - N/A   Clear
11:53 PM 64.9 °F - 51.1 °F 61% 30.08 in 10.0 mi North 4.6 mph - N/A   Clear